• In France
  • List of Countries
  • For 7 days
  • Water Temperature
  • Satellite Maps
  • Weather Map
  • Weather Widgets
  • user-avatar
    Login

    Hourly Weather Betli

    Today, 21 August, Tuesday

    Time Temperature Precipitation Wind Pressure Humidity
    00:00 +9°C° 0 mm 2 mps 620 mmHg 74%
    01:00 +9°C° 0 mm 2 mps 620 mmHg 73%
    02:00 +9°C° 0 mm 2 mps 620 mmHg 72%
    03:00 +9°C° 0 mm 3 mps 619 mmHg 74%
    04:00 +9°C° 0 mm 3 mps 620 mmHg 73%
    05:00 +9°C° 0 mm 2 mps 620 mmHg 73%
    06:00 +10°C° 0 mm 2 mps 620 mmHg 72%
    07:00 +13°C° 0 mm 2 mps 621 mmHg 64%
    08:00 +16°C° 0 mm 2 mps 621 mmHg 57%
    09:00 +18°C° 0 mm 2 mps 622 mmHg 50%
    10:00 +19°C° 0 mm 3 mps 623 mmHg 48%
    11:00 +20°C° 0 mm 3 mps 623 mmHg 47%
    12:00 +21°C° 0 mm 3 mps 623 mmHg 45%
    13:00 +21°C° 0.1 mm 3 mps 623 mmHg 47%
    14:00 +21°C° 0.1 mm 4 mps 622 mmHg 49%
    15:00 +20°C° 0.1 mm 4 mps 622 mmHg 51%
    16:00 +19°C° 0.1 mm 3 mps 622 mmHg 57%
    17:00 +18°C° 0.1 mm 3 mps 621 mmHg 63%
    18:00 +17°C° 0.1 mm 2 mps 621 mmHg 68%
    19:00 +16°C° 0 mm 2 mps 620 mmHg 72%
    20:00 +14°C° 0 mm 2 mps 620 mmHg 75%
    21:00 +13°C° 0 mm 2 mps 620 mmHg 79%
    22:00 +13°C° 0 mm 2 mps 619 mmHg 77%
    23:00 +13°C° 0 mm 2 mps 619 mmHg 75%

    Tomorrow, 22 August, Wednesday

    Time Temperature Precipitation Wind Pressure Humidity
    00:00 +13°C° 0 mm 2 mps 619 mmHg 73%
    01:00 +12°C° 0 mm 2 mps 619 mmHg 71%
    02:00 +12°C° 0 mm 2 mps 619 mmHg 68%
    03:00 +12°C° 0 mm 2 mps 618 mmHg 65%
    04:00 +12°C° 0 mm 2 mps 619 mmHg 63%
    05:00 +13°C° 0 mm 2 mps 619 mmHg 61%
    06:00 +13°C° 0 mm 2 mps 619 mmHg 59%
    07:00 +15°C° 0 mm 1 mps 620 mmHg 55%
    08:00 +18°C° 0 mm 1 mps 621 mmHg 51%
    09:00 +20°C° 0 mm 1 mps 621 mmHg 46%
    10:00 +21°C° 0 mm 1 mps 621 mmHg 46%
    11:00 +21°C° 0 mm 2 mps 622 mmHg 46%
    12:00 +21°C° 0 mm 2 mps 622 mmHg 45%
    13:00 +21°C° 0.3 mm 2 mps 622 mmHg 48%
    14:00 +21°C° 0.3 mm 2 mps 621 mmHg 50%
    15:00 +21°C° 0.3 mm 2 mps 621 mmHg 53%
    16:00 +20°C° 0.3 mm 2 mps 621 mmHg 58%
    17:00 +19°C° 0.3 mm 2 mps 620 mmHg 63%
    18:00 +19°C° 0.3 mm 1 mps 620 mmHg 68%
    19:00 +18°C° 0.2 mm 1 mps 620 mmHg 71%
    20:00 +16°C° 0.2 mm 1 mps 620 mmHg 74%
    21:00 +15°C° 0.2 mm 1 mps 620 mmHg 77%
    22:00 +14°C° 0.2 mm 2 mps 620 mmHg 77%
    23:00 +14°C° 0.2 mm 2 mps 620 mmHg 77%

    Day after tomorrow, 23 August, Thursday

    Time Temperature Precipitation Wind Pressure Humidity
    00:00 +13°C° 0.2 mm 2 mps 620 mmHg 78%
    01:00 +13°C° 0 mm 2 mps 620 mmHg 78%
    02:00 +13°C° 0 mm 2 mps 620 mmHg 78%
    03:00 +13°C° 0 mm 2 mps 620 mmHg 78%
    04:00 +13°C° 0 mm 2 mps 620 mmHg 77%
    05:00 +13°C° 0 mm 2 mps 620 mmHg 76%
    06:00 +13°C° 0 mm 2 mps 620 mmHg 75%
    07:00 +15°C° 0 mm 2 mps 621 mmHg 68%
    08:00 +17°C° 0 mm 2 mps 622 mmHg 62%
    09:00 +19°C° 0 mm 2 mps 623 mmHg 55%
    10:00 +19°C° 0.1 mm 2 mps 623 mmHg 53%
    11:00 +20°C° 0.1 mm 3 mps 623 mmHg 51%
    12:00 +21°C° 0.1 mm 3 mps 623 mmHg 50%
    13:00 +20°C° 0.4 mm 3 mps 623 mmHg 51%
    14:00 +20°C° 0.4 mm 3 mps 623 mmHg 53%
    15:00 +20°C° 0.4 mm 3 mps 622 mmHg 54%
    16:00 +19°C° 0.1 mm 3 mps 622 mmHg 59%
    17:00 +18°C° 0.1 mm 2 mps 622 mmHg 63%
    18:00 +17°C° 0.1 mm 2 mps 622 mmHg 67%
    19:00 +16°C° 0 mm 2 mps 621 mmHg 71%
    20:00 +14°C° 0 mm 2 mps 621 mmHg 76%
    21:00 +13°C° 0 mm 1 mps 621 mmHg 80%
    22:00 +13°C° 0.1 mm 1 mps 621 mmHg 80%
    23:00 +13°C° 0.1 mm 1 mps 621 mmHg 79%

    24 August, Friday

    Time Temperature Precipitation Wind Pressure Humidity
    00:00 +12°C° 0.1 mm 1 mps 621 mmHg 79%
    01:00 +12°C° 0 mm 1 mps 621 mmHg 78%
    02:00 +12°C° 0 mm 1 mps 620 mmHg 78%
    03:00 +12°C° 0 mm 1 mps 620 mmHg 77%
    04:00 +12°C° 0 mm 1 mps 620 mmHg 77%
    05:00 +12°C° 0 mm 1 mps 620 mmHg 76%
    06:00 +12°C° 0 mm 1 mps 621 mmHg 76%
    07:00 +14°C° 0 mm 2 mps 621 mmHg 70%
    08:00 +16°C° 0 mm 2 mps 622 mmHg 64%
    09:00 +18°C° 0 mm 3 mps 623 mmHg 58%
    10:00 +19°C° 0 mm 3 mps 623 mmHg 57%
    11:00 +19°C° 0 mm 3 mps 623 mmHg 56%
    12:00 +20°C° 0 mm 4 mps 623 mmHg 55%
    13:00 +19°C° 0.1 mm 4 mps 623 mmHg 57%
    14:00 +19°C° 0.1 mm 4 mps 622 mmHg 59%
    15:00 +19°C° 0.1 mm 4 mps 622 mmHg 62%
    16:00 +17°C° 0.1 mm 4 mps 622 mmHg 65%
    17:00 +16°C° 0.1 mm 3 mps 621 mmHg 69%
    18:00 +14°C° 0.1 mm 3 mps 621 mmHg 72%
    19:00 +14°C° 0.1 mm 2 mps 621 mmHg 75%
    20:00 +13°C° 0.1 mm 2 mps 620 mmHg 78%
    21:00 +12°C° 0.1 mm 2 mps 620 mmHg 81%
    22:00 +12°C° 0 mm 2 mps 620 mmHg 80%
    23:00 +12°C° 0 mm 2 mps 620 mmHg 79%

    25 August, Saturday

    Time Temperature Precipitation Wind Pressure Humidity
    00:00 +10°C° 0 mm 2 mps 620 mmHg 77%
    01:00 +10°C° 0 mm 2 mps 619 mmHg 76%
    02:00 +10°C° 0 mm 2 mps 619 mmHg 76%
    03:00 +10°C° 0 mm 2 mps 619 mmHg 75%
    04:00 +10°C° 0 mm 2 mps 619 mmHg 74%
    05:00 +10°C° 0 mm 2 mps 619 mmHg 73%
    06:00 +10°C° 0 mm 2 mps 619 mmHg 73%
    07:00 +13°C° 0 mm 2 mps 620 mmHg 66%
    08:00 +16°C° 0 mm 2 mps 621 mmHg 60%
    09:00 +18°C° 0 mm 3 mps 622 mmHg 54%
    10:00 +19°C° 0 mm 3 mps 622 mmHg 52%
    11:00 +20°C° 0 mm 4 mps 622 mmHg 51%
    12:00 +20°C° 0 mm 4 mps 622 mmHg 49%
    13:00 +20°C° 0 mm 4 mps 622 mmHg 50%
    14:00 +20°C° 0 mm 4 mps 622 mmHg 52%
    15:00 +20°C° 0 mm 4 mps 621 mmHg 53%
    16:00 +19°C° 0 mm 4 mps 621 mmHg 57%
    17:00 +17°C° 0 mm 4 mps 621 mmHg 62%
    18:00 +16°C° 0 mm 3 mps 620 mmHg 66%
    19:00 +14°C° 0 mm 3 mps 620 mmHg 69%
    20:00 +13°C° 0 mm 3 mps 620 mmHg 72%
    21:00 +12°C° 0 mm 2 mps 619 mmHg 75%
    22:00 +12°C° 0 mm 2 mps 619 mmHg 73%
    23:00 +12°C° 0 mm 2 mps 619 mmHg 70%

    26 August, Sunday

    Time Temperature Precipitation Wind Pressure Humidity
    00:00 +12°C° 0 mm 2 mps 619 mmHg 68%
    01:00 +12°C° 0 mm 2 mps 618 mmHg 66%
    02:00 +12°C° 0 mm 2 mps 618 mmHg 64%
    03:00 +10°C° 0 mm 2 mps 618 mmHg 62%
    04:00 +12°C° 0 mm 2 mps 618 mmHg 61%
    05:00 +12°C° 0 mm 2 mps 618 mmHg 60%
    06:00 +12°C° 0 mm 2 mps 618 mmHg 59%
    07:00 +15°C° 0 mm 2 mps 619 mmHg 53%
    08:00 +17°C° 0 mm 3 mps 620 mmHg 46%
    09:00 +20°C° 0 mm 3 mps 621 mmHg 39%
    10:00 +21°C° 0 mm 3 mps 621 mmHg 39%
    11:00 +22°C° 0 mm 4 mps 621 mmHg 38%
    12:00 +23°C° 0 mm 4 mps 621 mmHg 37%
    13:00 +22°C° 0 mm 4 mps 620 mmHg 39%
    14:00 +22°C° 0 mm 4 mps 620 mmHg 41%
    15:00 +22°C° 0 mm 4 mps 620 mmHg 43%
    16:00 +21°C° 0 mm 4 mps 619 mmHg 49%
    17:00 +19°C° 0 mm 3 mps 619 mmHg 54%
    18:00 +18°C° 0 mm 3 mps 618 mmHg 60%
    19:00 +16°C° 0 mm 3 mps 618 mmHg 62%
    20:00 +15°C° 0 mm 2 mps 618 mmHg 64%
    21:00 +14°C° 0 mm 2 mps 617 mmHg 66%
    22:00 +13°C° 0 mm 2 mps 617 mmHg 64%
    23:00 +13°C° 0 mm 2 mps 617 mmHg 61%
    Show more